Find Starlink 31076

NORAD ID: 58736 Int'l Des: 2024-005 Owner: SPXS Country: US Constellation: starlink operational
LEOCIRCULAR

Live-Position

3D-Globus wird geladen...

Über Starlink 31076

Beschreibung wird geladen...

Nächste Überflüge

Passes for default location (London). Set your location on the main map for personalized predictions.

Höhenverlauf

Loading altitude history...

Zweizeiliger Elementsatz

1 58736U 24005J 26125.42989130 .00000575 00000-0 30412-4 0 9993
2 58736 42.9998 259.1080 0000868 225.6162 134.4619 15.27599167129162
Epoch: 5. Mai 2026 • Age: 6 hours

Aktueller Status

Höhe 483.8 km
Geschwindigkeit 7.63 km/s
Subsatellitenpunkt 27.63°N, 176.25°E
Startdatum 7. Jan. 2024
Alter 2.3 years
Typ internet

Technische Details

Klassifizierung Payload
Masse 730.00 kg
Trockenmasse 700.00 kg
Gesamtmasse 730.00 kg
Länge 0.30 m
Durchmesser 4.10 m
Spannweite 29.00 m
Form Box + pan
Hersteller SPXS
Bus-Typ Starlink V2M
Phasenstatus In Orbit
Besitzer/Staat SPXS/US

Most Searched